Starlink 35412

operational
NORAD ID: 65797 Int'l Des: 2025-218 Owner: SPXS Country: US Constellation: starlink
LEOCIRCULARRETROGRADESSO

About Starlink 35412

Description loading...

Live Position

Loading 3D Globe...

Upcoming Passes

Altitude History

Altitude vs Time

uPlot chart will show altitude changes over time

Two-Line Element Set

1 65797U 25218G 26103.04527010 .00002599 00000-0 18425-3 0 9991
2 65797 97.6037 326.8826 0001871 90.6238 269.5204 15.05651278 30144
Epoch: Apr 13, 2026 • Age: 8 hours

Current Status

Altitude 553.5 km
Velocity 7.58 km/s
Sub-Earth Point -5.09°S, 9.26°W
Launch Date Sep 26, 2025
Age 0.5 years
Type internet

Technical Details

Classification Payload
Mass 575.00 kg
Dry Mass 530.00 kg
Total Mass 575.00 kg
Length 0.30 m
Diameter 4.10 m
Span 29.00 m
Shape Box + pan
Manufacturer SPXS
Bus Type Starlink V2MO
Phase Status In Orbit
Owner/State SPXS/US

Large Constellations

Loading constellations...